IU7LMH-13 Weather Reports


Display with metric or nautical units.
time (UTC)temp
F
wind
direction
speed
MPH
gust
MPH
rain 1hr
in
rain 24hr
in
rain mn
in
humidity
%
barometer
mb
20260904032442 75 292 7.0 9.0 0.00 0.00 0.00 59 1016.8
20260904032242 75 292 7.0 9.0 0.00 0.00 0.00 59 1016.6
20260904032048 75 270 8.0 11.0 0.00 0.00 0.00 59 1016.6
20260904031842 75 248 7.0 11.0 0.00 0.00 0.00 59 1016.5
20260904031642 75 270 4.0 9.0 0.00 0.00 0.00 60 1016.4
20260904031442 75 270 5.0 8.0 0.00 0.00 0.00 61 1016.5
20260904031243 75 270 4.0 6.0 0.00 0.00 0.00 61 1016.7
20260904030842 74 248 4.0 6.0 0.00 0.00 0.00 62 1016.6
20260904030641 74 248 4.0 6.0 0.00 0.00 0.00 63 1016.6
20260904030443 74 270 4.0 7.0 0.00 0.00 0.00 62 1016.5
20260904030055 75 270 4.0 4.0 0.00 0.00 0.00 62 1016.8
20260904025843 76 248 4.0 6.0 0.00 0.00 0.00 60 1016.6
20260904025642 77 270 4.0 6.0 0.00 0.00 0.00 61 1016.7
20260904025444 77 270 4.0 4.0 0.00 0.00 0.00 61 1016.6
20260904025243 77 270 5.0 9.0 0.00 0.00 0.00 60 1016.7
20260904025046 77 270 4.0 6.0 0.00 0.00 0.00 61 1016.5
20260904024843 77 292 4.0 8.0 0.00 0.00 0.00 61 1016.7
20260904024643 77 270 4.0 7.0 0.00 0.00 0.00 61 1016.6
20260904024442 77 270 3.0 6.0 0.00 0.00 0.00 61 1016.5
20260904024050 77 292 5.0 11.0 0.00 0.00 0.00 60 1016.4
20260904023843 78 292 4.0 7.0 0.00 0.00 0.00 60 1016.6
20260904023443 77 292 6.0 9.0 0.00 0.00 0.00 60 1016.7
20260904023246 77 270 5.0 8.0 0.00 0.00 0.00 60 1016.6
20260904023048 77 292 4.0 8.0 0.00 0.00 0.00 60 1016.6
20260904022844 77 270 7.0 9.0 0.00 0.00 0.00 60 1016.6
20260904022642 77 248 6.0 9.0 0.00 0.00 0.00 59 1016.6
20260904022443 77 270 5.0 9.0 0.00 0.00 0.00 59 1016.8
20260904022242 77 292 5.0 7.0 0.00 0.00 0.00 59 1016.5
20260904022045 77 292 5.0 8.0 0.00 0.00 0.00 59 1016.8
20260904021843 77 292 4.0 7.0 0.00 0.00 0.00 59 1016.7
20260904021643 77 292 4.0 6.0 0.00 0.00 0.00 59 1016.7
20260904021243 77 248 5.0 7.0 0.00 0.00 0.00 59 1016.7
20260904021052 77 292 4.0 7.0 0.00 0.00 0.00 58 1016.7
20260904020842 77 270 5.0 9.0 0.00 0.00 0.00 58 1016.8
20260904020643 77 292 6.0 9.0 0.00 0.00 0.00 58 1016.7
20260904020443 77 292 5.0 9.0 0.00 0.00 0.00 58 1016.6
20260904020243 77 292 4.0 8.0 0.00 0.00 0.00 59 1016.6
20260904020050 77 292 4.0 8.0 0.00 0.00 0.00 58 1016.6
20260904015843 77 270 8.0 9.0 0.00 0.00 0.00 58 1016.5
20260904015643 77 292 5.0 8.0 0.00 0.00 0.00 59 1016.8
20260904015243 76 315 6.0 9.0 0.00 0.00 0.00 60 1016.8
20260904015046 75 292 3.0 6.0 0.00 0.00 0.00 61 1016.8
20260904014843 75 270 4.0 6.0 0.00 0.00 0.00 62 1016.8
20260904014649 75 270 3.0 4.0 0.00 0.00 0.00 62 1016.6
20260904014447 75 292 4.0 6.0 0.00 0.00 0.00 62 1016.8
20260904014243 75 270 4.0 6.0 0.00 0.00 0.00 62 1016.8
20260904014053 75 270 4.0 4.0 0.00 0.00 0.00 62 1017.0
20260904013842 75 292 4.0 6.0 0.00 0.00 0.00 62 1016.8
20260904013444 75 292 4.0 6.0 0.00 0.00 0.00 62 1016.7
20260904013242 75 270 3.0 4.0 0.00 0.00 0.00 62 1016.9
20260904012843 75 270 4.0 7.0 0.00 0.00 0.00 62 1016.8
20260904012643 75 270 4.0 6.0 0.00 0.00 0.00 62 1016.6
20260904012443 75 270 4.0 7.0 0.00 0.00 0.00 61 1016.8
20260904012243 75 292 4.0 6.0 0.00 0.00 0.00 62 1016.8
20260904011842 75 292 4.0 4.0 0.00 0.00 0.00 62 1016.8
20260904011641 75 270 4.0 6.0 0.00 0.00 0.00 62 1016.8
20260904011441 75 270 4.0 8.0 0.00 0.00 0.00 62 1016.6
20260904011048 75 270 4.0 4.0 0.00 0.00 0.00 62 1016.6
20260904010843 75 248 4.0 6.0 0.00 0.00 0.00 62 1016.7
20260904010641 76 292 4.0 4.0 0.00 0.00 0.00 62 1016.6
20260904010442 76 292 4.0 4.0 0.00 0.00 0.00 61 1016.7
20260904010243 76 248 4.0 6.0 0.00 0.00 0.00 61 1016.7
20260904010053 76 292 3.0 4.0 0.00 0.00 0.00 61 1016.7
20260904005842 76 270 4.0 6.0 0.00 0.00 0.00 61 1016.7
20260904005642 76 270 4.0 7.0 0.00 0.00 0.00 61 1016.9
20260904005441 76 292 4.0 6.0 0.00 0.00 0.00 61 1016.8
20260904005242 76 292 4.0 6.0 0.00 0.00 0.00 60 1016.8
20260904005046 76 292 4.0 8.0 0.00 0.00 0.00 60 1016.7
20260904004842 76 292 4.0 6.0 0.00 0.00 0.00 60 1016.6
20260904004442 76 270 4.0 6.0 0.00 0.00 0.00 60 1016.6
20260904004243 76 270 4.0 7.0 0.00 0.00 0.00 60 1016.7
20260904004049 76 248 4.0 6.0 0.00 0.00 0.00 60 1016.7
20260904003643 76 270 4.0 7.0 0.00 0.00 0.00 60 1016.8
20260904003443 76 292 5.0 7.0 0.00 0.00 0.00 60 1016.8
20260904003242 76 248 4.0 6.0 0.00 0.00 0.00 60 1016.8
20260904003048 76 270 6.0 8.0 0.00 0.00 0.00 60 1016.7
20260904002843 76 248 4.0 6.0 0.00 0.00 0.00 60 1016.8
20260904002642 76 270 4.0 8.0 0.00 0.00 0.00 60 1016.7
20260904002443 76 292 6.0 9.0 0.00 0.00 0.00 60 1016.9
20260904002242 76 270 7.0 9.0 0.00 0.00 0.00 61 1016.8
20260904001843 76 292 4.0 9.0 0.00 0.00 0.00 62 1016.7
20260904001643 75 292 5.0 9.0 0.00 0.00 0.00 62 1016.6
20260904001442 75 270 4.0 7.0 0.00 0.00 0.00 63 1016.7
20260904001241 75 270 4.0 6.0 0.00 0.00 0.00 63 1016.7
20260904001048 75 270 3.0 4.0 0.00 0.00 0.00 63 1016.6
20260904000843 75 248 4.0 6.0 0.00 0.00 0.00 64 1016.6
20260904000641 75 270 3.0 4.0 0.00 0.00 0.00 64 1016.7
20260904000442 75 270 3.0 4.0 0.00 0.00 0.00 64 1016.8
20260904000243 75 270 3.0 4.0 0.00 0.00 0.00 64 1016.7
20260904000107 75 270 3.0 4.0 0.00 0.00 0.00 64 1016.7
20260903235841 75 248 4.0 6.0 0.00 0.00 0.00 64 1016.8
20260903235643 75 270 4.0 6.0 0.00 0.00 0.00 64 1016.7
20260903235243 75 248 3.0 4.0 0.00 0.00 0.00 64 1016.7
20260903235048 75 270 3.0 6.0 0.00 0.00 0.00 64 1016.8
20260903234842 76 270 4.0 6.0 0.00 0.00 0.00 63 1017.0
20260903234642 76 292 4.0 6.0 0.00 0.00 0.00 63 1016.9
20260903234443 76 270 3.0 4.0 0.00 0.00 0.00 63 1016.9
20260903233843 76 292 3.0 4.0 0.00 0.00 0.00 63 1016.9
20260903233642 76 292 3.0 4.0 0.00 0.00 0.00 63 1016.9
20260903233442 76 270 4.0 4.0 0.00 0.00 0.00 63 1016.9
20260903233049 76 270 2.0 4.0 0.00 0.00 0.00 63 1016.7
20260903232844 76 292 4.0 6.0 0.00 0.00 0.00 63 1016.7
20260903232643 77 270 3.0 4.0 0.00 0.00 0.00 63 1016.8
20260903232443 77 270 4.0 6.0 0.00 0.00 0.00 62 1016.7
20260903232244 77 248 4.0 7.0 0.00 0.00 0.00 62 1016.7
20260903232047 77 270 4.0 7.0 0.00 0.00 0.00 62 1016.8
20260903231843 78 270 4.0 6.0 0.00 0.00 0.00 62 1016.7
20260903231643 78 270 4.0 7.0 0.00 0.00 0.00 61 1016.6
20260903231242 78 270 6.0 9.0 0.00 0.00 0.00 61 1017.0
20260903231050 78 270 4.0 8.0 0.00 0.00 0.00 61 1016.8
20260903230643 77 292 5.0 8.0 0.00 0.00 0.00 61 1016.8
20260903230441 77 292 4.0 7.0 0.00 0.00 0.00 61 1016.7
20260903230242 77 270 4.0 4.0 0.00 0.00 0.00 60 1016.8
20260903230050 77 292 4.0 6.0 0.00 0.00 0.00 60 1016.8
20260903225845 77 270 3.0 4.0 0.00 0.00 0.00 60 1016.9
20260903225644 77 292 2.0 4.0 0.00 0.00 0.00 60 1016.8
20260903225442 78 270 4.0 6.0 0.00 0.00 0.00 60 1017.0
20260903225242 77 292 4.0 7.0 0.00 0.00 0.00 59 1016.8
20260903225046 77 292 4.0 7.0 0.00 0.00 0.00 60 1016.9
20260903224844 77 292 4.0 6.0 0.00 0.00 0.00 60 1016.9
20260903224643 77 292 4.0 4.0 0.00 0.00 0.00 60 1017.0
20260903224443 77 292 4.0 4.0 0.00 0.00 0.00 60 1017.1
20260903224243 77 270 4.0 6.0 0.00 0.00 0.00 60 1017.1
20260903224058 77 292 2.0 4.0 0.00 0.00 0.00 61 1017.2
20260903223843 77 270 3.0 4.0 0.00 0.00 0.00 61 1016.9
20260903223644 77 292 3.0 4.0 0.00 0.00 0.00 61 1017.0
20260903223442 77 270 2.0 4.0 0.00 0.00 0.00 61 1017.0
20260903223243 77 270 3.0 4.0 0.00 0.00 0.00 61 1017.0
20260903223049 77 292 3.0 4.0 0.00 0.00 0.00 61 1017.2
20260903222843 77 292 3.0 4.0 0.00 0.00 0.00 61 1017.0
20260903222644 77 292 3.0 4.0 0.00 0.00 0.00 61 1017.0
20260903222046 77 292 2.0 4.0 0.00 0.00 0.00 61 1017.1
20260903221842 77 292 2.0 4.0 0.00 0.00 0.00 61 1017.0
20260903221646 77 292 2.0 4.0 0.00 0.00 0.00 61 1017.1
20260903221442 77 292 2.0 4.0 0.00 0.00 0.00 61 1016.9
20260903221243 77 292 2.0 2.0 0.00 0.00 0.00 61 1017.2
20260903221051 77 292 2.0 2.0 0.00 0.00 0.00 61 1017.0
20260903220644 77 292 2.0 2.0 0.00 0.00 0.00 61 1017.0
20260903220443 77 315 2.0 2.0 0.00 0.00 0.00 60 1017.0
20260903220254 77 292 2.0 2.0 0.00 0.00 0.00 60 1016.9
20260903220108 77 292 2.0 4.0 0.00 0.00 0.00 60 1017.1
20260903215842 77 292 2.0 4.0 0.00 0.00 0.00 61 1017.1
20260903215644 77 292 2.0 4.0 0.00 0.00 0.00 60 1017.2
20260903215443 78 292 2.0 4.0 0.00 0.00 0.00 59 1017.2
20260903215243 78 292 2.0 4.0 0.00 0.00 0.00 60 1017.2
20260903215047 78 292 3.0 4.0 0.00 0.00 0.00 59 1017.2
20260903214842 78 292 3.0 4.0 0.00 0.00 0.00 59 1017.2
20260903214644 78 292 3.0 4.0 0.00 0.00 0.00 59 1017.2
20260903214442 78 292 2.0 2.0 0.00 0.00 0.00 60 1017.3
20260903213945 77 315 2.0 2.0 0.00 0.00 0.00 60 1017.1
20260903213741 77 315 0.0 0.0 0.00 0.00 0.00 60 1017.0
20260903213546 77 270 0.0 0.0 0.00 0.00 0.00 60 1017.0
20260903213344 78 315 0.0 0.0 0.00 0.00 0.00 59 1017.0
20260903213144 78 315 0.0 0.0 0.00 0.00 0.00 59 1017.1
20260903212942 78 270 0.0 0.0 0.00 0.00 0.00 59 1017.0
20260903212744 78 315 0.0 0.0 0.00 0.00 0.00 59 1017.1
20260903212548 79 292 2.0 2.0 0.00 0.00 0.00 58 1017.0
20260903212342 79 292 2.0 2.0 0.00 0.00 0.00 58 1017.0
20260903212142 79 315 3.0 6.0 0.00 0.00 0.00 58 1016.9
20260903211942 79 315 2.0 2.0 0.00 0.00 0.00 58 1016.9
20260903211743 79 292 3.0 4.0 0.00 0.00 0.00 57 1016.8
20260903211548 79 292 2.0 6.0 0.00 0.00 0.00 57 1016.8
20260903211344 79 292 2.0 4.0 0.00 0.00 0.00 57 1017.0
20260903211153 79 315 3.0 6.0 0.00 0.00 0.00 57 1016.9
20260903210743 79 292 5.0 7.0 0.00 0.00 0.00 57 1016.8
20260903210545 79 292 4.0 8.0 0.00 0.00 0.00 58 1016.8
20260903210343 78 292 5.0 7.0 0.00 0.00 0.00 59 1016.7
20260903210152 78 292 4.0 6.0 0.00 0.00 0.00 60 1016.8
20260903205743 77 292 2.0 4.0 0.00 0.00 0.00 63 1016.8
20260903205549 76 292 4.0 4.0 0.00 0.00 0.00 64 1016.8
20260903205343 76 292 3.0 4.0 0.00 0.00 0.00 66 1016.7
20260903205142 75 292 2.0 4.0 0.00 0.00 0.00 67 1016.8
20260903204944 75 315 0.0 2.0 0.00 0.00 0.00 69 1017.0
20260903204742 75 315 0.0 2.0 0.00 0.00 0.00 68 1016.8
20260903204548 76 315 0.0 0.0 0.00 0.00 0.00 68 1016.8
20260903204343 76 315 0.0 0.0 0.00 0.00 0.00 68 1017.0
20260903204146 76 338 0.0 0.0 0.00 0.00 0.00 67 1016.9
20260903203946 76 315 0.0 0.0 0.00 0.00 0.00 67 1017.0
20260903203743 76 315 0.0 0.0 0.00 0.00 0.00 66 1017.0
20260903203545 76 315 0.0 0.0 0.00 0.00 0.00 66 1016.9
20260903203343 76 315 0.0 0.0 0.00 0.00 0.00 66 1016.9
20260903203143 76 315 0.0 0.0 0.00 0.00 0.00 66 1016.6
20260903202944 77 315 0.0 0.0 0.00 0.00 0.00 65 1016.9
20260903202743 77 315 0.0 0.0 0.00 0.00 0.00 65 1016.8
20260903202344 77 338 0.0 2.0 0.00 0.00 0.00 64 1016.8
20260903202143 77 338 0.0 0.0 0.00 0.00 0.00 64 1016.6
20260903201943 77 338 0.0 0.0 0.00 0.00 0.00 64 1016.6
20260903201744 78 338 0.0 0.0 0.00 0.00 0.00 64 1016.5
20260903201549 78 315 0.0 2.0 0.00 0.00 0.00 63 1016.7
20260903201343 78 315 0.0 0.0 0.00 0.00 0.00 63 1016.6
20260903201151 78 0 0.0 0.0 0.00 0.00 0.00 63 1016.4
20260903200946 78 0 0.0 2.0 0.00 0.00 0.00 62 1016.5
20260903200743 78 338 0.0 0.0 0.00 0.00 0.00 62 1016.6
20260903200548 78 292 1.0 2.0 0.00 0.00 0.00 62 1016.5
20260903200343 78 292 0.0 0.0 0.00 0.00 0.00 62 1016.4
20260903200143 78 292 0.0 2.0 0.00 0.00 0.00 62 1016.7
20260903195944 78 315 2.0 4.0 0.00 0.00 0.00 62 1016.7
20260903195744 78 315 2.0 4.0 0.00 0.00 0.00 62 1016.6
20260903195550 78 292 2.0 2.0 0.00 0.00 0.00 62 1016.5
20260903195344 79 248 2.0 2.0 0.00 0.00 0.00 61 1016.3
20260903195143 79 270 2.0 2.0 0.00 0.00 0.00 60 1016.4
20260903194945 79 270 3.0 4.0 0.00 0.00 0.00 59 1016.4
20260903194744 80 270 3.0 4.0 0.00 0.00 0.00 58 1016.3
20260903194550 80 292 3.0 4.0 0.00 0.00 0.00 58 1016.2
20260903194344 80 270 3.0 4.0 0.00 0.00 0.00 57 1016.2
20260903194143 80 292 2.0 4.0 0.00 0.00 0.00 57 1016.3
20260903193946 80 292 2.0 4.0 0.00 0.00 0.00 56 1016.2
20260903193745 80 292 3.0 4.0 0.00 0.00 0.00 56 1016.1
20260903193547 80 292 4.0 6.0 0.00 0.00 0.00 55 1016.1
20260903193344 80 292 3.0 4.0 0.00 0.00 0.00 56 1016.2
20260903193145 80 270 2.0 4.0 0.00 0.00 0.00 56 1016.1
20260903192944 79 292 2.0 4.0 0.00 0.00 0.00 56 1016.2
20260903192746 79 270 3.0 4.0 0.00 0.00 0.00 57 1016.1
20260903192550 80 292 2.0 2.0 0.00 0.00 0.00 57 1016.1
20260903192344 79 292 3.0 4.0 0.00 0.00 0.00 56 1016.3
20260903192144 79 315 3.0 4.0 0.00 0.00 0.00 57 1016.3
20260903191944 79 292 3.0 4.0 0.00 0.00 0.00 57 1016.2
20260903191743 79 292 2.0 4.0 0.00 0.00 0.00 57 1016.1
20260903191549 79 315 2.0 2.0 0.00 0.00 0.00 58 1016.3
20260903191344 78 292 2.0 4.0 0.00 0.00 0.00 58 1016.2
20260903191144 78 292 2.0 2.0 0.00 0.00 0.00 60 1016.2
20260903190743 78 292 1.0 2.0 0.00 0.00 0.00 61 1016.1
20260903190546 78 270 2.0 2.0 0.00 0.00 0.00 61 1016.4
20260903190342 78 292 2.0 2.0 0.00 0.00 0.00 62 1016.1
20260903190148 78 292 2.0 2.0 0.00 0.00 0.00 62 1016.1
20260903185943 78 292 2.0 2.0 0.00 0.00 0.00 62 1016.1
20260903185743 78 292 2.0 2.0 0.00 0.00 0.00 62 1016.0
20260903185549 78 292 2.0 2.0 0.00 0.00 0.00 62 1016.1
20260903185345 78 292 2.0 2.0 0.00 0.00 0.00 62 1016.1
20260903184945 79 270 2.0 2.0 0.00 0.00 0.00 59 1016.0
20260903184745 79 292 2.0 2.0 0.00 0.00 0.00 59 1015.9
20260903184551 78 292 2.0 2.0 0.00 0.00 0.00 59 1016.0
20260903184343 78 292 2.0 2.0 0.00 0.00 0.00 60 1015.9
20260903183946 78 292 2.0 2.0 0.00 0.00 0.00 61 1016.0
20260903183744 78 292 2.0 2.0 0.00 0.00 0.00 62 1016.0
20260903183546 78 292 2.0 2.0 0.00 0.00 0.00 63 1015.8
20260903183343 79 292 1.0 2.0 0.00 0.00 0.00 63 1015.8
20260903183143 79 292 1.0 2.0 0.00 0.00 0.00 63 1016.0
20260903182946 80 292 1.0 2.0 0.00 0.00 0.00 62 1015.9
20260903182745 80 292 0.0 0.0 0.00 0.00 0.00 61 1015.8
20260903182347 81 292 0.0 2.0 0.00 0.00 0.00 58 1015.7
20260903182143 81 315 1.0 2.0 0.00 0.00 0.00 56 1015.6
20260903181944 81 292 1.0 2.0 0.00 0.00 0.00 55 1015.6
20260903181743 81 315 1.0 2.0 0.00 0.00 0.00 53 1015.7
20260903181550 81 338 0.0 0.0 0.00 0.00 0.00 54 1015.5
20260903181344 81 338 0.0 0.0 0.00 0.00 0.00 54 1015.8
20260903181143 81 338 0.0 0.0 0.00 0.00 0.00 53 1015.5
20260903180944 82 0 0.0 0.0 0.00 0.00 0.00 55 1015.7
20260903180743 82 0 0.0 0.0 0.00 0.00 0.00 52 1015.4
20260903180547 82 0 0.0 0.0 0.00 0.00 0.00 52 1015.3
20260903180344 82 0 0.0 0.0 0.00 0.00 0.00 52 1015.5
20260903180144 83 0 0.0 2.0 0.00 0.00 0.00 51 1015.4
20260903175944 83 338 0.0 0.0 0.00 0.00 0.00 52 1015.4
20260903175742 83 338 1.0 2.0 0.00 0.00 0.00 50 1015.4
20260903175559 83 0 0.0 0.0 0.00 0.00 0.00 51 1015.5
20260903175347 83 338 0.0 0.0 0.00 0.00 0.00 50 1015.3
20260903175142 83 0 1.0 4.0 0.00 0.00 0.00 49 1015.1
20260903174942 83 0 0.0 0.0 0.00 0.00 0.00 49 1015.3
20260903174745 83 0 0.0 2.0 0.00 0.00 0.00 49 1015.2
20260903174559 84 338 0.0 0.0 0.00 0.00 0.00 49 1015.1
20260903174342 84 338 0.0 2.0 0.00 0.00 0.00 49 1015.1
20260903174143 84 315 1.0 2.0 0.00 0.00 0.00 48 1015.2
20260903173945 85 338 0.0 2.0 0.00 0.00 0.00 47 1015.1
20260903173546 85 0 1.0 2.0 0.00 0.00 0.00 46 1015.2
20260903173345 85 338 1.0 2.0 0.00 0.00 0.00 46 1015.3
20260903173143 85 0 1.0 2.0 0.00 0.00 0.00 45 1015.3
20260903172744 86 338 0.0 2.0 0.00 0.00 0.00 45 1015.2
20260903172553 86 338 2.0 4.0 0.00 0.00 0.00 44 1015.1
20260903172343 86 45 1.0 2.0 0.00 0.00 0.00 44 1015.1
20260903171742 87 338 2.0 4.0 0.00 0.00 0.00 43 1015.0
20260903171549 87 22 2.0 4.0 0.00 0.00 0.00 43 1014.9
20260903171343 87 338 2.0 4.0 0.00 0.00 0.00 43 1014.8
20260903171144 87 0 3.0 4.0 0.00 0.00 0.00 43 1014.9
20260903170945 88 0 1.0 2.0 0.00 0.00 0.00 43 1014.9
20260903170743 88 0 2.0 4.0 0.00 0.00 0.00 42 1014.9
20260903170547 88 248 2.0 4.0 0.00 0.00 0.00 42 1014.9
20260903170343 88 338 2.0 6.0 0.00 0.00 0.00 41 1015.1
20260903170144 88 22 2.0 4.0 0.00 0.00 0.00 41 1014.8
20260903165943 89 22 2.0 4.0 0.00 0.00 0.00 41 1014.9
20260903165550 89 338 2.0 4.0 0.00 0.00 0.00 41 1014.9
20260903165343 89 22 3.0 7.0 0.00 0.00 0.00 40 1014.7
20260903165144 89 45 4.0 11.0 0.00 0.00 0.00 39 1014.8
20260903164943 89 22 3.0 4.0 0.00 0.00 0.00 40 1014.9
20260903164741 89 45 2.0 4.0 0.00 0.00 0.00 40 1014.8
20260903163945 90 0 5.0 11.0 0.00 0.00 0.00 38 1014.6
20260903163806 90 22 2.0 4.0 0.00 0.00 0.00 39 1014.7
20260903163546 90 292 4.0 8.0 0.00 0.00 0.00 38 1014.7
20260903163341 90 315 2.0 6.0 0.00 0.00 0.00 38 1014.7
20260903163144 90 338 3.0 4.0 0.00 0.00 0.00 38 1014.7
20260903162943 91 315 2.0 4.0 0.00 0.00 0.00 38 1014.6
20260903162549 91 315 2.0 4.0 0.00 0.00 0.00 37 1014.6
20260903162343 91 338 2.0 4.0 0.00 0.00 0.00 37 1014.6
20260903162143 91 338 2.0 4.0 0.00 0.00 0.00 37 1014.7
20260903161744 91 45 2.0 4.0 0.00 0.00 0.00 36 1014.7
20260903161549 92 22 3.0 7.0 0.00 0.00 0.00 36 1014.5
20260903161144 92 45 4.0 8.0 0.00 0.00 0.00 36 1014.5
20260903160944 92 22 3.0 7.0 0.00 0.00 0.00 36 1014.5
20260903160546 92 315 2.0 6.0 0.00 0.00 0.00 37 1014.4
20260903160342 92 315 2.0 4.0 0.00 0.00 0.00 37 1014.5
20260903160143 92 135 2.0 4.0 0.00 0.00 0.00 37 1014.3
20260903155942 92 248 2.0 4.0 0.00 0.00 0.00 37 1014.5
20260903155743 92 0 3.0 7.0 0.00 0.00 0.00 37 1014.4
20260903155549 92 315 4.0 8.0 0.00 0.00 0.00 36 1014.3
20260903155344 92 338 4.0 8.0 0.00 0.00 0.00 37 1014.5
20260903155144 92 292 2.0 4.0 0.00 0.00 0.00 36 1014.3
20260903154549 93 180 3.0 8.0 0.00 0.01 0.00 36 1014.3
20260903154342 93 338 4.0 9.0 0.00 0.02 0.00 36 1014.2
20260903154142 93 248 2.0 7.0 0.00 0.04 0.00 37 1014.3
20260903153945 93 270 6.0 11.0 0.00 0.04 0.00 36 1014.3
20260903153745 93 180 2.0 6.0 0.00 0.04 0.00 36 1014.4
20260903153545 93 45 4.0 6.0 0.00 0.04 0.00 37 1014.1
20260903153144 93 338 3.0 6.0 0.00 0.04 0.00 36 1014.2
20260903152943 93 315 5.0 7.0 0.00 0.04 0.00 37 1014.3
20260903152342 94 292 3.0 6.0 0.00 0.04 0.00 35 1014.0
20260903152144 94 338 3.0 7.0 0.00 0.04 0.00 35 1014.0
20260903151943 94 45 3.0 4.0 0.00 0.04 0.00 35 1014.1
20260903151743 94 315 4.0 9.0 0.00 0.04 0.00 35 1013.9
20260903151549 94 292 2.0 4.0 0.00 0.04 0.00 35 1014.2
20260903151342 94 68 4.0 7.0 0.00 0.04 0.00 35 1013.8
20260903151144 94 292 2.0 8.0 0.00 0.04 0.00 36 1014.1
20260903150945 94 338 4.0 7.0 0.00 0.05 0.00 35 1013.9
20260903150744 94 292 3.0 6.0 0.00 0.05 0.00 35 1014.0
20260903150547 94 315 4.0 9.0 0.00 0.07 0.00 35 1014.0
20260903150344 94 270 4.0 8.0 0.00 0.08 0.00 35 1013.9
20260903145744 94 338 4.0 6.0 0.00 0.11 0.00 35 1014.0
20260903145548 94 180 4.0 8.0 0.00 0.11 0.00 35 1013.9
20260903145342 94 292 2.0 4.0 0.00 0.12 0.00 35 1014.1
20260903145143 94 315 4.0 8.0 0.00 0.14 0.00 36 1014.2
20260903144944 95 338 3.0 6.0 0.00 0.16 0.00 35 1014.0
20260903144743 95 292 3.0 6.0 0.00 0.16 0.00 35 1014.1
20260903144343 94 22 4.0 7.0 0.00 0.16 0.00 35 1014.0
20260903144142 94 315 4.0 8.0 0.00 0.16 0.00 35 1014.0
20260903143943 94 315 4.0 7.0 0.00 0.16 0.00 35 1014.1
20260903143743 93 0 2.0 4.0 0.00 0.16 0.00 36 1013.9
20260903143546 93 292 3.0 4.0 0.00 0.16 0.00 36 1014.0
20260903143343 93 338 4.0 7.0 0.00 0.16 0.00 35 1014.1
20260903143144 94 315 5.0 7.0 0.00 0.16 0.00 35 1014.0
20260903142942 94 45 2.0 4.0 0.00 0.16 0.00 35 1013.9
20260903142744 94 315 2.0 4.0 0.00 0.16 0.00 34 1014.1
20260903142548 95 315 3.0 4.0 0.00 0.16 0.00 34 1014.2
20260903142343 96 270 4.0 8.0 0.00 0.16 0.00 33 1014.1
20260903142144 96 68 5.0 11.0 0.00 0.16 0.00 32 1014.0
20260903141943 96 68 4.0 8.0 0.00 0.16 0.00 32 1013.9
20260903141548 96 315 2.0 4.0 0.00 0.16 0.00 32 1014.2
20260903141342 96 292 2.0 4.0 0.00 0.16 0.00 32 1013.9
20260903141142 95 292 4.0 7.0 0.00 0.16 0.00 31 1014.0
20260903140743 95 22 2.0 6.0 0.00 0.16 0.00 33 1013.9
20260903140546 94 338 3.0 4.0 0.00 0.16 0.00 33 1014.1
20260903140342 94 22 2.0 6.0 0.00 0.16 0.00 33 1014.1
20260903140143 95 292 4.0 8.0 0.00 0.17 0.00 32 1014.0
20260903135942 95 45 3.0 4.0 0.00 0.17 0.00 30 1014.0
20260903135743 96 68 3.0 6.0 0.00 0.17 0.00 31 1014.0
20260903135548 97 22 6.0 11.0 0.00 0.18 0.00 30 1013.9
20260903135343 97 270 4.0 7.0 0.00 0.18 0.00 31 1014.1
20260903135143 97 202 3.0 8.0 0.00 0.18 0.00 31 1014.0
20260903134944 97 22 4.0 8.0 0.00 0.20 0.00 32 1013.9
20260903134550 96 45 2.0 4.0 0.00 0.21 0.00 31 1013.9
20260903134342 96 315 3.0 7.0 0.00 0.21 0.00 31 1014.1
20260903134143 96 202 3.0 6.0 0.00 0.22 0.00 32 1014.0
20260903133944 96 338 3.0 6.0 0.00 0.22 0.00 31 1014.0
20260903133743 97 68 4.0 8.0 0.00 0.24 0.00 31 1014.0
20260903133546 96 45 3.0 7.0 0.00 0.28 0.00 31 1014.0
20260903133342 96 315 2.0 4.0 0.00 0.34 0.00 31 1014.1
20260903133142 96 338 3.0 7.0 0.00 0.36 0.00 31 1014.1
20260903132943 96 45 3.0 7.0 0.00 0.37 0.00 32 1014.2
20260903132743 95 0 2.0 6.0 0.00 0.37 0.00 34 1014.0
20260903132548 96 292 7.0 11.0 0.00 0.37 0.00 32 1014.2
20260903132142 96 338 4.0 8.0 0.00 0.37 0.00 32 1014.0
20260903131941 96 292 5.0 11.0 0.00 0.37 0.00 32 1014.2
20260903131744 96 315 6.0 9.0 0.00 0.37 0.00 33 1014.0
20260903131342 97 270 4.0 8.0 0.00 0.37 0.00 32 1014.2
20260903130944 97 22 5.0 8.0 0.00 0.37 0.00 32 1014.3
20260903130743 96 90 2.0 4.0 0.00 0.37 0.00 33 1014.1
20260903130546 96 315 4.0 6.0 0.00 0.37 0.00 34 1014.2
20260903130343 96 22 3.0 6.0 0.00 0.37 0.00 33 1014.3
20260903125743 96 90 5.0 8.0 0.00 0.37 0.00 33 1014.4
20260903125549 96 0 5.0 8.0 0.00 0.37 0.00 33 1014.2
20260903125142 96 45 4.0 7.0 0.00 0.37 0.00 33 1014.2
20260903124943 95 315 2.0 6.0 0.00 0.37 0.00 34 1014.3
20260903124742 95 0 6.0 9.0 0.00 0.37 0.00 33 1014.2
20260903124549 96 0 5.0 11.0 0.00 0.37 0.00 32 1014.3
20260903124342 96 338 2.0 4.0 0.00 0.37 0.00 34 1014.4
20260903124143 96 292 5.0 11.0 0.00 0.37 0.00 34 1014.4
20260903123944 97 135 6.0 11.0 0.00 0.37 0.00 32 1014.2
20260903123743 97 292 2.0 4.0 0.00 0.37 0.00 33 1014.4
20260903123545 97 202 2.0 4.0 0.00 0.37 0.00 33 1014.3
20260903123342 96 248 4.0 7.0 0.00 0.37 0.00 33 1014.5
20260903122941 95 270 6.0 11.0 0.00 0.37 0.00 33 1014.5
20260903122742 95 338 5.0 9.0 0.00 0.37 0.00 33 1014.5
20260903122549 97 22 4.0 6.0 0.00 0.37 0.00 32 1014.5
20260903122342 97 68 4.0 7.0 0.00 0.37 0.00 32 1014.4
20260903122142 97 292 2.0 4.0 0.00 0.37 0.00 31 1014.4
20260903121942 97 292 3.0 6.0 0.00 0.37 0.00 32 1014.6
20260903121743 96 315 2.0 4.0 0.00 0.37 0.00 32 1014.6
20260903121342 96 338 2.0 4.0 0.00 0.37 0.00 31 1014.4
20260903121142 96 338 3.0 7.0 0.00 0.37 0.00 31 1014.5
20260903120944 96 338 6.0 11.0 0.00 0.37 0.00 31 1014.5
20260903120742 97 68 6.0 11.0 0.00 0.37 0.00 31 1014.5
20260903120546 96 292 2.0 4.0 0.00 0.37 0.00 31 1014.7
20260903120343 96 315 1.0 2.0 0.00 0.37 0.00 31 1014.6
20260903120142 96 315 2.0 4.0 0.00 0.37 0.00 32 1014.7
20260903115743 96 292 4.0 11.0 0.00 0.37 0.00 31 1014.6
20260903115549 96 315 2.0 4.0 0.00 0.37 0.00 33 1014.6
20260903115342 95 0 2.0 4.0 0.00 0.37 0.00 31 1014.7
20260903115143 96 315 5.0 7.0 0.00 0.37 0.00 31 1014.7
20260903114942 96 0 3.0 6.0 0.00 0.37 0.00 31 1014.9
20260903114743 95 338 3.0 7.0 0.00 0.37 0.00 31 1014.9
20260903114549 95 315 7.0 13.0 0.00 0.37 0.00 32 1014.9
20260903114343 95 315 6.0 11.0 0.00 0.37 0.00 32 1014.8
20260903113944 95 315 6.0 9.0 0.00 0.37 0.00 32 1014.7
20260903113744 95 292 4.0 8.0 0.00 0.37 0.00 33 1015.0
20260903113546 95 315 7.0 9.0 0.00 0.37 0.00 31 1014.8
20260903113342 95 338 3.0 6.0 0.00 0.37 0.00 33 1015.0
20260903113143 95 338 4.0 7.0 0.00 0.37 0.00 32 1014.8
20260903112942 95 0 4.0 7.0 0.00 0.37 0.00 33 1014.9
20260903112742 96 292 8.0 11.0 0.00 0.37 0.00 31 1014.9
20260903112547 96 315 2.0 6.0 0.00 0.37 0.00 32 1015.1
20260903112343 96 0 4.0 7.0 0.00 0.37 0.00 33 1015.0
20260903112143 95 315 4.0 7.0 0.00 0.37 0.00 34 1015.2
20260903111942 95 292 5.0 11.0 0.00 0.37 0.00 33 1014.9
20260903111742 96 0 7.0 11.0 0.00 0.37 0.00 33 1015.2
20260903111548 96 90 3.0 6.0 0.00 0.37 0.00 32 1015.1
20260903111342 96 338 3.0 4.0 0.00 0.37 0.00 30 1015.0
20260903111143 95 0 2.0 4.0 0.00 0.37 0.00 31 1015.1
20260903110943 95 292 2.0 4.0 0.00 0.37 0.00 30 1015.0
20260903110743 95 315 5.0 9.0 0.00 0.37 0.00 30 1015.0
20260903110547 94 158 3.0 4.0 0.00 0.37 0.00 32 1015.3
20260903110143 95 315 6.0 11.0 0.00 0.37 0.00 32 1015.1
20260903105942 94 270 2.0 4.0 0.00 0.37 0.00 33 1015.2
20260903105743 94 292 3.0 6.0 0.00 0.37 0.00 34 1015.2
20260903105549 94 315 7.0 11.0 0.00 0.37 0.00 32 1015.3
20260903105343 94 292 3.0 4.0 0.00 0.37 0.00 34 1015.2
20260903105142 94 292 4.0 7.0 0.00 0.37 0.00 33 1015.3
20260903104943 93 45 4.0 7.0 0.00 0.37 0.00 33 1015.3
20260903104743 93 315 7.0 8.0 0.00 0.37 0.00 36 1015.2
20260903104549 93 270 6.0 9.0 0.00 0.37 0.00 35 1015.4
20260903104343 93 292 7.0 9.0 0.00 0.37 0.00 34 1015.4
20260903104144 94 292 8.0 11.0 0.00 0.37 0.00 35 1015.5
20260903103945 94 315 6.0 11.0 0.00 0.37 0.00 36 1015.6
20260903103743 94 315 2.0 4.0 0.00 0.37 0.00 36 1015.6
20260903103547 94 338 7.0 11.0 0.00 0.37 0.00 37 1015.7
20260903103343 94 338 3.0 6.0 0.00 0.37 0.00 36 1015.6
20260903103143 94 112 2.0 4.0 0.00 0.37 0.00 36 1015.7
20260903102943 94 292 3.0 6.0 0.00 0.37 0.00 36 1015.6
20260903102744 94 292 2.0 4.0 0.00 0.37 0.00 36 1015.5
20260903102549 94 315 2.0 6.0 0.00 0.37 0.00 34 1015.6
20260903102343 93 315 5.0 8.0 0.00 0.37 0.00 36 1016.0
20260903102143 93 45 4.0 6.0 0.00 0.37 0.00 37 1015.7
20260903101942 93 0 3.0 4.0 0.00 0.37 0.00 38 1015.7
20260903101743 93 292 4.0 6.0 0.00 0.37 0.00 37 1015.8
20260903101343 92 0 4.0 7.0 0.00 0.37 0.00 38 1015.7
20260903101143 92 315 4.0 7.0 0.00 0.37 0.00 38 1015.7
20260903100945 92 338 3.0 7.0 0.00 0.37 0.00 39 1016.1
20260903100743 93 292 5.0 7.0 0.00 0.37 0.00 40 1015.9
20260903100545 93 292 2.0 4.0 0.00 0.37 0.00 39 1015.7
20260903100343 92 315 4.0 8.0 0.00 0.37 0.00 38 1016.1
20260903100143 91 22 1.0 2.0 0.00 0.37 0.00 39 1016.0
20260903095942 91 315 3.0 4.0 0.00 0.37 0.00 38 1016.1
20260903095743 91 270 4.0 8.0 0.00 0.37 0.00 38 1016.1
20260903095549 91 292 5.0 9.0 0.00 0.37 0.00 36 1016.1
20260903095143 92 338 5.0 8.0 0.00 0.37 0.00 37 1016.2
20260903094942 92 315 6.0 9.0 0.00 0.37 0.00 37 1016.1
20260903094744 92 315 3.0 6.0 0.00 0.37 0.00 39 1016.0
20260903094548 93 315 5.0 8.0 0.00 0.37 0.00 37 1016.2
20260903094343 93 0 4.0 7.0 0.00 0.37 0.00 38 1016.2
20260903094144 92 292 3.0 7.0 0.00 0.37 0.00 38 1016.3
20260903093945 92 0 1.0 2.0 0.00 0.37 0.00 38 1016.2
20260903093744 92 315 3.0 7.0 0.00 0.37 0.00 39 1016.4
20260903093344 92 45 4.0 6.0 0.00 0.37 0.00 39 1016.2
20260903093144 92 45 2.0 4.0 0.00 0.37 0.00 40 1016.5
20260903092943 91 292 4.0 7.0 0.00 0.37 0.00 40 1016.4
20260903092548 92 292 3.0 4.0 0.00 0.37 0.00 39 1016.3
20260903092344 92 315 2.0 4.0 0.00 0.37 0.00 40 1016.4
20260903092144 92 315 2.0 4.0 0.00 0.37 0.00 41 1016.3
20260903091743 91 45 1.0 2.0 0.00 0.37 0.00 42 1016.4
20260903091549 90 315 1.0 2.0 0.00 0.37 0.00 42 1016.6
20260903091344 90 270 2.0 4.0 0.00 0.37 0.00 43 1016.6
20260903091144 90 292 5.0 9.0 0.00 0.37 0.00 42 1016.5
20260903090945 90 270 4.0 4.0 0.00 0.37 0.00 42 1016.7
20260903090744 90 315 4.0 9.0 0.00 0.37 0.00 45 1016.6
20260903090546 90 248 2.0 4.0 0.00 0.37 0.00 46 1016.5
20260903090342 90 292 3.0 4.0 0.00 0.37 0.00 42 1016.5
20260903090143 89 0 2.0 4.0 0.00 0.37 0.00 44 1016.5
20260903085942 89 315 3.0 6.0 0.00 0.37 0.00 46 1016.6
20260903085744 89 45 4.0 6.0 0.00 0.37 0.00 45 1016.6
20260903085550 89 315 5.0 7.0 0.00 0.37 0.00 46 1016.5
20260903085343 89 315 4.0 9.0 0.00 0.37 0.00 46 1016.5
20260903085144 89 270 3.0 6.0 0.00 0.37 0.00 45 1016.6
20260903084943 89 338 2.0 4.0 0.00 0.37 0.00 46 1016.7
20260903084743 89 292 3.0 6.0 0.00 0.37 0.00 47 1016.6
20260903084548 88 90 4.0 6.0 0.00 0.37 0.00 47 1016.6
20260903084344 87 248 4.0 7.0 0.00 0.37 0.00 49 1016.6
20260903084142 87 292 4.0 8.0 0.00 0.37 0.00 47 1016.8
20260903083945 87 315 5.0 8.0 0.00 0.37 0.00 47 1016.5
20260903083744 88 292 5.0 7.0 0.00 0.37 0.00 47 1016.6
20260903083546 88 315 4.0 6.0 0.00 0.37 0.00 47 1016.4
20260903083343 87 292 3.0 6.0 0.00 0.37 0.00 48 1016.7
20260903083144 87 292 4.0 7.0 0.00 0.37 0.00 47 1016.7
20260903082942 88 338 4.0 9.0 0.00 0.37 0.00 47 1016.6
20260903082742 88 248 4.0 8.0 0.00 0.37 0.00 48 1016.7
20260903082549 87 270 3.0 4.0 0.00 0.37 0.00 46 1016.5
20260903082344 87 315 4.0 6.0 0.00 0.37 0.00 49 1016.4
20260903081548 86 292 7.0 8.0 0.00 0.37 0.00 47 1016.5
20260903081342 86 315 2.0 4.0 0.00 0.37 0.00 50 1016.5
20260903081142 86 292 3.0 4.0 0.00 0.37 0.00 50 1016.5
20260903080944 86 315 6.0 8.0 0.00 0.37 0.00 48 1016.6
20260903080743 86 292 2.0 4.0 0.00 0.37 0.00 51 1016.6
20260903080544 85 315 6.0 9.0 0.00 0.37 0.00 49 1016.7
20260903080343 85 292 4.0 6.0 0.00 0.37 0.00 49 1016.6
20260903080144 85 315 6.0 8.0 0.00 0.37 0.00 49 1016.5
20260903075943 85 292 5.0 6.0 0.00 0.37 0.00 49 1016.5
20260903075743 85 270 4.0 7.0 0.00 0.37 0.00 51 1016.4
20260903075548 85 315 6.0 9.0 0.00 0.37 0.00 49 1016.5
20260903075342 85 292 7.0 11.0 0.00 0.37 0.00 49 1016.5
20260903075143 85 292 8.0 11.0 0.00 0.37 0.00 50 1016.4
20260903074941 85 292 7.0 9.0 0.00 0.37 0.00 51 1016.4
20260903074742 84 292 7.0 11.0 0.00 0.37 0.00 50 1016.4
20260903074548 84 315 5.0 9.0 0.00 0.37 0.00 51 1016.5
20260903074342 84 315 5.0 9.0 0.00 0.37 0.00 52 1016.4
20260903073944 84 292 5.0 7.0 0.00 0.37 0.00 54 1016.2
20260903073743 84 292 4.0 6.0 0.00 0.37 0.00 54 1016.3
20260903073342 84 292 4.0 7.0 0.00 0.37 0.00 55 1016.2
20260903072942 84 270 5.0 8.0 0.00 0.37 0.00 53 1016.4
20260903072342 83 292 4.0 7.0 0.00 0.37 0.00 59 1016.5
20260903072141 83 292 3.0 4.0 0.00 0.37 0.00 59 1016.4
20260903071741 83 270 3.0 4.0 0.00 0.37 0.00 60 1016.3
20260903071548 83 270 4.0 6.0 0.00 0.37 0.00 57 1016.2
20260903071144 83 292 3.0 4.0 0.00 0.37 0.00 61 1016.2
20260903070945 82 292 4.0 6.0 0.00 0.37 0.00 59 1016.5
20260903070743 82 270 3.0 4.0 0.00 0.37 0.00 60 1016.4
20260903070343 82 292 3.0 4.0 0.00 0.37 0.00 61 1016.1
20260903070142 82 292 2.0 4.0 0.00 0.37 0.00 62 1016.3
20260903065942 82 315 3.0 4.0 0.00 0.37 0.00 62 1016.3
20260903065742 82 292 3.0 4.0 0.00 0.37 0.00 63 1016.5
20260903065547 82 292 2.0 4.0 0.00 0.37 0.00 63 1016.3
20260903065141 82 315 4.0 6.0 0.00 0.37 0.00 62 1016.4
20260903064942 82 270 3.0 4.0 0.00 0.37 0.00 62 1016.4
20260903064548 82 270 4.0 6.0 0.00 0.37 0.00 61 1016.5
20260903064342 82 248 2.0 4.0 0.00 0.37 0.00 62 1016.3
20260903063944 81 270 4.0 4.0 0.00 0.37 0.00 61 1016.5
20260903063742 82 270 2.0 2.0 0.00 0.37 0.00 63 1016.4
20260903063546 82 315 2.0 4.0 0.00 0.37 0.00 64 1016.4
20260903063141 81 270 1.0 2.0 0.00 0.37 0.00 65 1016.6
20260903062942 80 292 2.0 2.0 0.00 0.37 0.00 65 1016.5
20260903062743 80 292 0.0 2.0 0.00 0.37 0.00 66 1016.5
20260903062550 80 292 2.0 2.0 0.00 0.37 0.00 65 1016.5
20260903062343 79 292 1.0 2.0 0.00 0.37 0.00 67 1016.5
20260903062143 79 338 3.0 6.0 0.00 0.37 0.00 66 1016.4
20260903061943 79 292 1.0 2.0 0.00 0.37 0.00 69 1016.4
20260903061742 79 315 1.0 2.0 0.00 0.37 0.00 70 1016.4
20260903061549 78 292 0.0 2.0 0.00 0.37 0.00 71 1016.5
20260903061142 78 270 2.0 4.0 0.00 0.37 0.00 69 1016.5
20260903060945 77 292 2.0 2.0 0.00 0.37 0.00 71 1016.4
20260903060743 77 292 2.0 4.0 0.00 0.37 0.00 72 1016.6
20260903060545 77 292 0.0 0.0 0.00 0.37 0.00 74 1016.5
20260903060342 77 292 0.0 0.0 0.00 0.37 0.00 74 1016.7
20260903060143 76 292 0.0 0.0 0.00 0.37 0.00 74 1016.7
20260903055942 76 315 0.0 0.0 0.00 0.37 0.00 75 1016.6
20260903055743 76 315 1.0 2.0 0.00 0.37 0.00 75 1016.6
20260903055549 76 292 0.0 2.0 0.00 0.37 0.00 75 1016.5
20260903055342 75 292 2.0 2.0 0.00 0.37 0.00 75 1016.5
20260903055141 75 292 2.0 2.0 0.00 0.37 0.00 74 1016.5
20260903054942 75 292 2.0 2.0 0.00 0.37 0.00 74 1016.6
20260903054741 75 292 1.0 2.0 0.00 0.37 0.00 75 1016.6
20260903054342 75 315 0.0 0.0 0.00 0.37 0.00 75 1016.7
20260903054143 75 292 0.0 2.0 0.00 0.37 0.00 74 1016.5
20260903053944 76 315 0.0 2.0 0.00 0.37 0.00 74 1016.7
20260903053743 76 315 0.0 0.0 0.00 0.37 0.00 75 1016.7
20260903053547 75 292 0.0 0.0 0.00 0.37 0.00 75 1016.6
20260903053341 75 292 0.0 0.0 0.00 0.37 0.00 75 1016.5
20260903053141 74 292 0.0 0.0 0.00 0.37 0.00 75 1016.5
20260903052942 74 270 1.0 2.0 0.00 0.37 0.00 75 1016.5
20260903052742 74 270 1.0 2.0 0.00 0.37 0.00 75 1016.4
20260903052341 73 292 2.0 4.0 0.00 0.37 0.00 75 1016.5
20260903052141 73 292 2.0 2.0 0.00 0.37 0.00 76 1016.5
20260903051943 73 292 2.0 4.0 0.00 0.37 0.00 77 1016.5
20260903051743 73 315 2.0 2.0 0.00 0.37 0.00 77 1016.5
20260903051612 72 315 2.0 2.0 0.00 0.37 0.00 78 1016.4
20260903051342 72 315 1.0 2.0 0.00 0.37 0.00 78 1016.3
20260903051146 72 315 2.0 2.0 0.00 0.37 0.00 78 1016.4
20260903050944 72 315 1.0 2.0 0.00 0.37 0.00 79 1016.4
20260903050744 72 315 1.0 2.0 0.00 0.37 0.00 79 1016.5
20260903050546 72 315 2.0 2.0 0.00 0.37 0.00 79 1016.4
20260903045743 73 315 1.0 2.0 0.00 0.37 0.00 77 1016.4
20260903045549 73 292 2.0 4.0 0.00 0.37 0.00 76 1016.5
20260903045343 72 315 4.0 6.0 0.00 0.37 0.00 76 1016.2
20260903045144 72 315 3.0 4.0 0.00 0.37 0.00 78 1016.4
20260903044942 71 315 2.0 4.0 0.00 0.37 0.00 80 1016.4
20260903044743 71 315 3.0 4.0 0.00 0.37 0.00 82 1016.3
20260903044550 71 292 0.0 0.0 0.00 0.37 0.00 82 1016.2
20260903044342 71 315 0.0 2.0 0.00 0.37 0.00 82 1016.4
20260903043945 71 338 0.0 2.0 0.00 0.37 0.00 82 1016.4
20260903043742 71 292 2.0 4.0 0.00 0.37 0.00 82 1016.4
20260903043546 71 270 1.0 2.0 0.00 0.37 0.00 83 1016.3
20260903043343 71 292 2.0 2.0 0.00 0.37 0.00 83 1016.3
20260903043144 71 292 2.0 4.0 0.00 0.37 0.00 83 1016.1
20260903042943 71 270 2.0 2.0 0.00 0.37 0.00 84 1016.2
20260903042743 71 292 2.0 4.0 0.00 0.37 0.00 84 1016.2
20260903042550 71 315 1.0 2.0 0.00 0.37 0.00 84 1016.4
20260903042341 71 315 2.0 2.0 0.00 0.37 0.00 83 1016.2
20260903042142 71 292 2.0 2.0 0.00 0.37 0.00 83 1016.2
20260903041942 71 292 2.0 2.0 0.00 0.37 0.00 83 1016.1
20260903041744 71 292 2.0 4.0 0.00 0.37 0.00 84 1016.1
20260903041556 71 292 3.0 4.0 0.00 0.37 0.00 84 1016.3
20260903040943 71 292 2.0 4.0 0.00 0.37 0.00 85 1016.2
20260903040742 71 270 2.0 4.0 0.00 0.37 0.00 85 1016.2
20260903040547 71 292 2.0 4.0 0.00 0.37 0.00 85 1016.2
20260903040055 71 248 2.0 2.0 0.00 0.37 0.00 85 1016.3
20260903035644 71 292 3.0 4.0 0.00 0.37 0.00 84 1016.0
20260903035442 71 270 2.0 2.0 0.00 0.37 0.00 84 1016.1
20260903035243 71 248 1.0 2.0 0.00 0.37 0.00 84 1016.2
20260903035046 72 248 2.0 2.0 0.00 0.37 0.00 83 1016.2
20260903034843 72 248 2.0 2.0 0.00 0.37 0.00 83 1016.2
20260903034652 72 270 1.0 2.0 0.00 0.37 0.00 83 1016.1
20260903034441 72 292 1.0 2.0 0.00 0.37 0.00 83 1016.4
20260903034048 72 315 2.0 2.0 0.00 0.37 0.00 83 1016.2
20260903033842 71 292 2.0 2.0 0.00 0.37 0.00 84 1016.2
20260903033642 71 292 2.0 2.0 0.00 0.37 0.00 84 1016.2
20260903033442 71 292 2.0 2.0 0.00 0.37 0.00 84 1016.2
20260903033242 71 292 2.0 2.0 0.00 0.37 0.00 85 1016.0
20260903033049 71 270 2.0 4.0 0.00 0.37 0.00 86 1016.3
20260903032844 71 292 3.0 4.0 0.00 0.37 0.00 87 1016.3